Location: Alexandria
(38.8050°N, 77.0470°W)
Time: 06:55:54
(UTC-05:00)

Vanguard 2 Rocket - All Passes

Search period start: 18 January 2018 00:00
Search period end: 28 January 2018 00:00
Orbit: 556 x 3326 km, 32.9° (Epoch: 17 January)

Date Brightness Start Highest point End Pass type
(mag) Time Alt. Az. Time Alt. Az. Time Alt. Az.
18 Jan - 06:19:34 10° SSW 06:27:37 19° SSE 06:33:26 10° ESE visible
18 Jan - 08:33:03 10° SW 08:41:48 37° SSE 08:47:12 10° ESE daylight
18 Jan - 10:48:36 10° WSW 10:54:54 46° S 10:59:08 10° ESE daylight
18 Jan - 13:03:33 10° WSW 13:07:11 24° SSW 13:10:24 10° SE daylight
19 Jan - 05:20:17 10° S 05:27:26 16° SSE 05:33:02 10° ESE visible
19 Jan - 07:32:11 10° SW 07:42:09 33° SSE 07:48:21 10° ESE daylight
19 Jan - 09:47:54 10° WSW 09:55:45 48° S 10:00:34 10° ESE daylight
19 Jan - 12:03:29 10° W 12:08:20 34° SSW 12:12:03 10° SE daylight
20 Jan - 04:22:51 10° SSE 04:27:00 12° SSE 04:30:41 10° SE visible
20 Jan - 06:31:22 10° SSW 06:42:14 29° SSE 06:49:14 10° ESE visible
20 Jan - 08:46:50 10° WSW 08:56:22 47° S 09:01:58 10° E daylight
20 Jan - 11:03:04 10° W 11:09:24 44° S 11:13:38 10° ESE daylight
20 Jan - 13:18:47 10° WSW 13:21:28 16° SSW 13:23:54 10° S daylight
21 Jan - 05:30:52 10° SSW 05:42:01 25° SSE 05:49:41 10° ESE visible
21 Jan - 07:45:32 10° SW 07:56:43 44° SSE 08:03:16 10° E daylight
21 Jan - 10:02:13 10° WSW 10:10:16 51° S 10:15:09 10° ESE daylight
21 Jan - 12:18:14 10° W 12:22:40 25° SSW 12:26:07 10° SSE daylight
22 Jan - 04:31:01 10° S 04:41:33 20° SSE 04:49:27 10° ESE visible
22 Jan - 06:44:10 10° SW 06:56:47 40° SSE 07:04:22 10° E visible
22 Jan - 09:00:57 10° WSW 09:10:54 54° S 09:16:37 10° ESE daylight
22 Jan - 11:17:38 10° W 11:23:48 37° SSW 11:27:58 10° SE daylight
23 Jan - 03:32:23 10° S 03:40:53 15° SE 03:47:55 10° ESE visible
23 Jan - 05:42:58 10° SW 05:56:32 35° SSE 06:05:09 10° E visible
23 Jan - 07:59:22 10° WSW 08:11:16 54° S 08:17:59 10° E daylight
23 Jan - 10:16:40 10° W 10:24:44 49° SSW 10:29:39 10° ESE daylight
23 Jan - 12:33:24 10° WSW 12:36:49 17° SSW 12:39:39 10° S daylight
24 Jan - 02:38:12 10° SSE 02:40:04 10° SE 02:41:52 10° SE visible
24 Jan - 04:42:10 10° SSW 04:56:00 30° SSE 05:05:30 10° E visible
24 Jan - 06:57:36 10° WSW 07:11:18 50° SSE 07:19:10 10° E daylight
24 Jan - 09:15:16 10° W 09:25:24 57° S 09:31:11 10° ESE daylight
24 Jan - 11:32:20 10° W 11:38:02 28° SSW 11:42:03 10° SSE daylight
25 Jan - 03:42:04 10° SSW 03:55:15 24° SSE 04:05:10 10° ESE visible
25 Jan - 05:55:53 10° SW 06:11:01 46° SSE 06:20:07 10° E visible
25 Jan - 08:13:29 10° WSW 08:25:46 60° S 08:32:36 10° E daylight
25 Jan - 10:31:12 10° W 10:39:06 42° SSW 10:43:59 10° SE daylight
26 Jan - 02:43:07 10° S 02:54:22 19° SE 03:03:43 10° ESE visible
26 Jan - 04:54:29 10° SW 05:10:24 40° SSE 05:20:45 10° E visible
26 Jan - 07:11:27 10° WSW 07:25:47 59° S 07:33:50 10° E daylight
26 Jan - 09:29:42 10° W 09:39:50 53° SSW 09:45:39 10° ESE daylight
26 Jan - 11:47:24 10° W 11:52:05 20° SW 11:55:37 10° SSE daylight
27 Jan - 01:46:34 10° SSE 01:53:26 13° SE 01:59:46 10° ESE visible
27 Jan - 03:53:35 10° SSW 04:09:33 34° SSE 04:20:54 10° E visible
27 Jan - 06:09:22 10° WSW 06:25:27 56° SSE 06:34:52 10° E visible
27 Jan - 08:27:47 10° W 08:40:15 61° S 08:47:07 10° ESE daylight
27 Jan - 10:45:51 10° W 10:53:16 32° SSW 10:58:03 10° SE daylight
